Regional Weather Roundup
Issued by NWS

Home | Current Version | Previous Version | Text Only | Print | Product List | Glossary On
Versions: 1 2 3 4 5 6 7 8 9 10 11 12 13 14 15 16 17 18 19 20 21 22 23 24 25 26 27 28 29 30 31 32 33 34 35 36 37 38 39 40 41 42 43 44 45 46 47 48 49 50
696
ASUS43 KDMX 261301
RWRIA

WEATHER ROUNDUP FOR IOWA
NATIONAL WEATHER SERVICE DES MOINES IA
800 AM CDT WED APR 26 2017

NOTE: "FAIR" INDICATES FEW OR NO CLOUDS BELOW 12,000 FEET WITH NO
SIGNIFICANT WEATHER AND/OR OBSTRUCTIONS TO VISIBILITY.

* - THESE STATIONS ARE NOT NWS STATIONS...THUS NOT UNDER NWS
QUALITY CONTROL.  THEY ALSO DO NOT REPORT WEATHER SUCH
AS PRECIPITATION OR FOG.

IAZ001>003-012>014-020>022-031>034-043>046-261400-
   NORTHWEST IOWA

CITY           SKY/WX    TMP DP  RH WIND       PRES   REMARKS
CARROLL *      CLOUDY    39  39 100 NW23G32   29.56R WCI  29
CHEROKEE *     CLOUDY    36  35  98 NW13G24   29.60R WCI  27
DENISON *      CLOUDY    36  36 100 NW13G21   29.62R WCI  27
LE MARS *      CLOUDY    36  34  93 NW15G22   29.65R FOG     WCI  26
ORANGE CITY *  CLOUDY    36  36 100 NW18G25   29.61S WCI  25
SHELDON *      CLOUDY    36  34  93 NW18      29.58F WCI  25
SIOUX CITY     CLOUDY    35  33  92 NW26G32   29.65R WCI  22
SPENCER        CLOUDY    37  35  92 NW22G30   29.56R WCI  26
STORM LAKE *   CLOUDY    36  36 100 NW23G31   29.57R WCI  24
$$

IAZ055>058-069>071-079>083-090>094-261400-
   SOUTHWEST IOWA

CITY           SKY/WX    TMP DP  RH WIND       PRES   REMARKS
ATLANTIC *     CLOUDY    39  36  87 NW18      29.60R WCI  30
AUDUBON *      CLOUDY    37  36  93 NW16G22   29.59R WCI  28
CLARINDA *     CLOUDY    39  36  87 NW17      29.65R WCI  30
COUNCIL BLFS * CLOUDY    36  36 100 NW18G31   29.64R WCI  25
CRESTON *      CLOUDY    39  39 100 NW22G32   29.57R WCI  29
HARLAN  *      CLOUDY    37  37 100 NW17G23   29.65R WCI  28
LAMONI         CLOUDY    41  39  93 NW16G22   29.57R
RED OAK *      CLOUDY    39  36  87 NW16G23   29.64R WCI  30
SHENANDOAH *   CLOUDY    39  36  87 NW12G21   29.66R FOG     WCI  32
$$

IAZ047>049-059>061-072>074-084-261400-
   CENTRAL IOWA

CITY           SKY/WX    TMP DP  RH WIND       PRES   REMARKS
AMES           CLOUDY    43  42  97 NW16G24   29.50R
ANKENY *       CLOUDY    43  41  93 NW18      29.52S
BOONE *        CLOUDY    41  41 100 NW14G20   29.51R FOG
CHARITON *     CLOUDY    43  41  93 W17       29.53R
DES MOINES     CLOUDY    43  41  93 NW17      29.52R FOG
GRINNELL*      CLOUDY    45  43  93 W20       29.47R
KNOXVILLE *    CLOUDY    45  43  93 NW17      29.50R
MARSHALLTOWN   CLOUDY    45  44  97 W20       29.46R
NEWTON *       CLOUDY    45  43  93 NW16G24   29.48R
PELLA *        CLOUDY    44  43  95 NW18G26   29.51R
PERRY *        CLOUDY    41  38  89 NW16G23   29.55R
$$

IAZ004>006-015-016-023>025-035-036-261400-
   NORTH CENTRAL IOWA

CITY           SKY/WX    TMP DP  RH WIND       PRES   REMARKS
ALGONA *       CLOUDY    39  39 100 NW16G29   29.50S FOG     WCI  30
CLARION *      CLOUDY    41  41 100 NW24G30   29.48S FOG
ESTHERVILLE    CLOUDY    36  36 100 NW26G33   29.53S WCI  24
FORT DODGE *   CLOUDY    39  36  87 NW15G23   29.53R WCI  31
MASON CITY     CLOUDY    45  43  93 NW21      29.45R
FOREST CITY *  CLOUDY    43  43 100 NW20G25   29.47R FOG
WEBSTER CITY * CLOUDY    41  41 100 NW22G30   29.49R
IOWA FALLS *   CLOUDY    45  44  95 W18G24    29.48R FOG
$$

IAZ007>011-017>019-026>030-037>042-050>054-066-261400-
   NORTHEAST IOWA

CITY           SKY/WX    TMP DP  RH WIND       PRES   REMARKS
CEDAR RAPIDS   LGT RAIN  49  49 100 W14       29.43R FOG
CHARLES CITY * DRIZZLE   50  50 100 W13       29.40F
CLINTON *      LGT RAIN  60  59  96 SE5       29.37F FOG
DECORAH *      CLOUDY    55  55 100 SW7       29.36F
DUBUQUE        LGT RAIN  58  56  93 S8        29.39F FOG
MONTICELLO *   DRIZZLE   55  55 100 NW8       29.38F
OELWEIN *      LGT RAIN  50  50 100 W16       29.39F
WATERLOO       LGT RAIN  48  46  93 W14       29.42R
$$

IAZ064-065-067-068-078-261400-
   EAST CENTRAL IOWA

CITY           SKY/WX    TMP DP  RH WIND       PRES   REMARKS
DAVENPORT      LGT RAIN  60  59  96 CALM      29.36F FOG
IOWA CITY      LGT RAIN  51  48  89 W13       29.45R
MT. PLEASANT * CLOUDY    50  50 100 W13G18    29.48R
MUSCATINE *    CLOUDY    54  52  94 W14G22    29.43R
QUAD CITIES    CLOUDY    61  59  93 CALM      29.36F
$$

IAZ062-063-075>077-085>089-095>099-261400-
   SOUTHEAST IOWA

CITY           SKY/WX    TMP DP  RH WIND       PRES   REMARKS
BURLINGTON     CLOUDY    55  54  96 NW12      29.44R FOG
FAIRFIELD *    CLOUDY    50  46  87 W12G18    29.48R
FORT MADISON * CLOUDY    55  54  94 W13G18    29.48R
KEOKUK *       CLOUDY    55  54  94 W14       29.48R
OSKALOOSA *    CLOUDY    45  43  93 W21G26    29.50R
CENTERVILLE *  CLOUDY    45  45 100 W14       29.54R
OTTUMWA        CLOUDY    47  46  97 W14       29.50R
WASHINGTON *   LGT RAIN  50  50 100 W12       29.48R
$$

ABBREVIATIONS USED IN REMARKS
   TC - TEMPERATURES IN CELSIUS
  WCI - WIND CHILL INDEX
   HX - HEAT INDEX
  VSB - VISIBILITY
$$





USA.gov is the U.S. government's official web portal to all federal, state and local government web resources and services.